Voltar ao catálogo

FENGYUN 1C DEB

AtivoSSO
NORAD 29987·DEBRIS·🇨🇳 China

Lançado May 10, 1999 de Taiyuan Satellite Launch Center

Loading…

Próximas Passagens (próximas 24 horas)

TLE

AtualizadoSource: Space-Track

Época: Sep 12, 2026, 16:22 UTC

1 29987U 99025LM  26255.68201912  .00002042  00000-0  10186-2 0  9995
2 29987  98.8844 152.0795 0076580 171.4911 244.2705 14.16492733  2474

Acompanhe FENGYUN 1C DEB em tempo real com AllMySat

Download on the App Store